Volver al catálogo

FENGYUN 1C DEB

ActivoSSO
NORAD 30464·DEBRIS·🇨🇳 China

Lanzado May 10, 1999 desde Taiyuan Satellite Launch Center

Loading…

Próximos Pases (próximas 24 horas)

TLE

ActualizadoSource: Space-Track

Época: Sep 13, 2026, 17:03 UTC

1 30464U 99025AGB 26256.71042175 -.00000001  00000-0  22683-4 0  9997
2 30464  98.7989 306.6871 0108873 200.8923 285.4997 14.10326822  9351

Sigue FENGYUN 1C DEB en tiempo real con AllMySat

Download on the App Store